CW5102 Weather Reports


Display with metric or nautical units.
time (UTC)temp
F
wind
direction
speed
MPH
gust
MPH
rain 1hr
in
rain 24hr
in
rain mn
in
humidity
%
barometer
mb
20260508130703 49 260 1.0 9.0 0.00 0.00 0.00 40 1007.0
20260508130204 48 243 2.0 9.0 0.00 0.00 0.00 39 1007.0
20260508125703 47 244 1.0 8.0 0.00 0.00 0.00 40 1007.0
20260508125204 47 254 2.0 6.0 0.00 0.00 0.00 40 1007.0
20260508124704 46 313 1.0 7.0 0.00 0.00 0.00 42 1007.1
20260508124204 46 197 1.0 8.0 0.00 0.00 0.00 41 1007.1
20260508123703 46 185 1.0 8.0 0.00 0.00 0.00 41 1007.1
20260508123203 45 313 1.0 8.0 0.00 0.00 0.00 41 1007.0
20260508122703 45 279 2.0 8.0 0.00 0.00 0.00 41 1007.0
20260508122203 45 317 0.0 6.0 0.00 0.00 0.00 42 1007.0
20260508121704 45 256 1.0 9.0 0.00 0.00 0.00 42 1007.0
20260508121204 45 288 2.0 9.0 0.00 0.00 0.00 42 1006.9
20260508120703 44 186 2.0 9.0 0.00 0.00 0.00 42 1006.9
20260508120204 44 245 2.0 8.0 0.00 0.00 0.00 42 1006.8
20260508115703 44 274 1.0 8.0 0.00 0.00 0.00 42 1006.9
20260508115204 44 268 1.0 7.0 0.00 0.00 0.00 43 1006.8
20260508114704 44 284 1.0 6.0 0.00 0.00 0.00 42 1006.8
20260508114204 44 282 0.0 6.0 0.00 0.00 0.00 42 1006.8
20260508113703 44 236 2.0 7.0 0.00 0.00 0.00 42 1006.8
20260508113204 44 230 1.0 7.0 0.00 0.00 0.00 42 1006.8
20260508112703 44 239 1.0 7.0 0.00 0.00 0.00 42 1006.8
20260508112204 43 260 1.0 8.0 0.00 0.00 0.00 42 1006.8
20260508111703 43 314 2.0 8.0 0.00 0.00 0.00 42 1006.8
20260508111204 43 229 1.0 3.0 0.00 0.00 0.00 43 1006.8
20260508110703 43 242 1.0 3.0 0.00 0.00 0.00 42 1006.8
20260508110203 43 215 0.0 3.0 0.00 0.00 0.00 43 1006.8
20260508105204 43 289 0.0 3.0 0.00 0.00 0.00 42 1006.8
20260508104204 43 289 0.0 5.0 0.00 0.00 0.00 42 1006.8
20260508103203 44 310 0.0 3.0 0.00 0.00 0.00 42 1006.8
20260508102704 44 310 1.0 6.0 0.00 0.00 0.00 42 1006.9
20260508101703 44 279 1.0 6.0 0.00 0.00 0.00 41 1006.9
20260508100204 44 285 1.0 5.0 0.00 0.00 0.00 40 1007.0
20260508095704 44 245 0.0 5.0 0.00 0.00 0.00 40 1007.0
20260508095204 44 226 1.0 7.0 0.00 0.00 0.00 40 1007.0
20260508094703 44 300 0.0 7.0 0.00 0.00 0.00 40 1007.0
20260508094204 44 304 1.0 7.0 0.00 0.00 0.00 39 1006.9
20260508093703 44 274 0.0 5.0 0.00 0.00 0.00 39 1006.9
20260508093204 44 257 1.0 6.0 0.00 0.00 0.00 39 1007.0
20260508092704 44 197 1.0 6.0 0.00 0.00 0.00 39 1007.0
20260508091703 44 341 1.0 7.0 0.00 0.00 0.00 39 1007.0
20260508091203 44 267 0.0 6.0 0.00 0.00 0.00 40 1007.1
20260508090204 44 216 1.0 5.0 0.00 0.00 0.00 39 1007.1
20260508085704 44 270 1.0 5.0 0.00 0.00 0.00 40 1007.1
20260508084705 45 268 1.0 5.0 0.00 0.00 0.00 40 1007.1
20260508084204 45 177 0.0 5.0 0.00 0.00 0.00 39 1007.1
20260508083704 45 267 0.0 8.0 0.00 0.00 0.00 39 1007.1
20260508083203 45 235 2.0 8.0 0.00 0.00 0.00 39 1007.1
20260508082704 45 222 1.0 8.0 0.00 0.00 0.00 39 1007.2
20260508081703 45 273 1.0 6.0 0.00 0.00 0.00 39 1007.3
20260508081204 45 217 1.0 6.0 0.00 0.00 0.00 40 1007.2
20260508080704 45 299 0.0 5.0 0.00 0.00 0.00 40 1007.3
20260508080202 45 217 1.0 5.0 0.00 0.00 0.00 40 1007.2
20260508075702 45 201 1.0 5.0 0.00 0.00 0.00 41 1007.3
20260508075201 45 259 1.0 6.0 0.00 0.00 0.00 40 1007.4
20260508074201 45 218 1.0 7.0 0.00 0.00 0.00 40 1007.4
20260508073702 46 224 1.0 5.0 0.00 0.00 0.00 40 1007.5
20260508073202 46 195 1.0 3.0 0.00 0.00 0.00 40 1007.5
20260508072702 46 208 0.0 3.0 0.00 0.00 0.00 40 1007.5
20260508072202 46 191 1.0 3.0 0.00 0.00 0.00 40 1007.5
20260508071702 46 229 0.0 5.0 0.00 0.00 0.00 40 1007.5
20260508071202 46 202 0.0 5.0 0.00 0.00 0.00 40 1007.6
20260508070701 46 187 0.0 6.0 0.00 0.00 0.00 40 1007.6
20260508070203 46 188 1.0 6.0 0.00 0.00 0.00 40 1007.7
20260508065702 46 222 0.0 3.0 0.00 0.00 0.00 41 1007.7
20260508065202 46 230 1.0 3.0 0.00 0.00 0.00 41 1007.7
20260508064702 46 225 0.0 3.0 0.00 0.00 0.00 40 1007.8
20260508064202 46 229 0.0 2.0 0.00 0.00 0.00 40 1007.8
20260508063702 46 229 0.0 2.0 0.00 0.00 0.00 40 1007.8
20260508063202 47 243 0.0 1.0 0.00 0.00 0.00 39 1007.8
20260508062702 47 244 0.0 3.0 0.00 0.00 0.00 39 1007.9
20260508062202 47 235 0.0 3.0 0.00 0.00 0.00 38 1007.9
20260508061702 47 270 0.0 3.0 0.00 0.00 0.00 38 1008.0
20260508061202 47 270 0.0 3.0 0.00 0.00 0.00 38 1008.0
20260508060702 47 221 0.0 3.0 0.00 0.00 0.00 38 1008.1
20260508060202 47 225 0.0 3.0 0.00 0.00 0.00 38 1008.1
20260508055202 47 184 1.0 5.0 0.00 0.00 0.00 39 1008.1
20260508054702 47 316 1.0 5.0 0.00 0.00 0.00 39 1008.2
20260508054202 47 234 1.0 5.0 0.00 0.00 0.00 38 1008.1
20260508053702 47 266 0.0 5.0 0.00 0.00 0.00 38 1008.1
20260508053202 48 277 0.0 3.0 0.00 0.00 0.00 39 1008.2
20260508052702 48 277 0.0 3.0 0.00 0.00 0.00 38 1008.2
20260508052202 48 281 0.0 3.0 0.00 0.00 0.00 38 1008.2
20260508051702 48 282 1.0 3.0 0.00 0.00 0.00 38 1008.3
20260508051202 48 246 1.0 3.0 0.00 0.00 0.00 38 1008.3
20260508050703 48 233 0.0 3.0 0.00 0.00 0.00 37 1008.3
20260508050202 48 224 1.0 3.0 0.00 0.00 0.00 38 1008.4
20260508045703 48 287 0.0 3.0 0.00 0.00 0.00 38 1008.4
20260508045203 48 261 0.0 3.0 0.00 0.00 0.00 39 1008.4
20260508044202 48 272 0.0 3.0 0.00 0.00 0.00 38 1008.5
20260508043702 48 272 0.0 3.0 0.00 0.00 0.00 38 1008.6
20260508042702 49 323 0.0 0.0 0.00 0.00 0.00 37 1008.6
20260508042203 49 287 0.0 0.0 0.00 0.00 0.00 38 1008.7
20260508041202 49 287 0.0 0.0 0.00 0.00 0.00 37 1008.6
20260508040702 49 290 0.0 0.0 0.00 0.00 0.00 37 1008.6
20260508035702 49 290 0.0 1.0 0.00 0.00 0.00 35 1008.6
20260508035202 49 291 0.0 0.0 0.00 0.00 0.00 35 1008.7
20260508034702 49 291 0.0 0.0 0.00 0.00 0.00 36 1008.7
20260508034202 49 291 0.0 0.0 0.00 0.00 0.00 34 1008.8
20260508033702 49 291 0.0 0.0 0.00 0.00 0.00 35 1008.8
20260508033202 49 291 0.0 3.0 0.00 0.00 0.00 36 1008.8
20260508032702 50 291 0.0 3.0 0.00 0.00 0.00 36 1008.9
20260508032204 50 306 0.0 3.0 0.00 0.00 0.00 35 1008.8
20260508031702 50 8 0.0 0.0 0.00 0.00 0.00 35 1008.8
20260508031202 50 8 0.0 0.0 0.00 0.00 0.00 35 1008.8
20260508030702 50 9 0.0 0.0 0.00 0.00 0.00 36 1008.8
20260508030202 50 9 0.0 0.0 0.00 0.00 0.00 36 1008.9
20260508025702 50 9 0.0 0.0 0.00 0.00 0.00 35 1008.9
20260508025202 50 9 0.0 0.0 0.00 0.00 0.00 35 1008.9
20260508024702 50 9 0.0 0.0 0.00 0.00 0.00 36 1008.9
20260508024202 50 9 0.0 0.0 0.00 0.00 0.00 35 1008.9
20260508023703 50 9 0.0 0.0 0.00 0.00 0.00 35 1008.8
20260508022702 51 9 0.0 0.0 0.00 0.00 0.00 34 1008.8
20260508022202 51 9 0.0 0.0 0.00 0.00 0.00 34 1008.8
20260508021702 51 9 0.0 0.0 0.00 0.00 0.00 33 1008.8
20260508021202 51 9 0.0 0.0 0.00 0.00 0.00 33 1008.8
20260508020703 52 9 0.0 0.0 0.00 0.00 0.00 33 1008.7
20260508015702 52 9 0.0 0.0 0.00 0.00 0.00 31 1008.5
20260508015202 53 9 0.0 0.0 0.00 0.00 0.00 29 1008.5
20260508014703 53 9 0.0 0.0 0.00 0.00 0.00 29 1008.5
20260508014202 53 9 0.0 0.0 0.00 0.00 0.00 29 1008.4
20260508013702 53 9 0.0 0.0 0.00 0.00 0.00 29 1008.4
20260508013204 53 9 0.0 0.0 0.00 0.00 0.00 29 1008.5
20260508012703 54 9 0.0 0.0 0.00 0.00 0.00 29 1008.4
20260508011702 54 9 0.0 0.0 0.00 0.00 0.00 28 1008.3
20260508011203 55 9 0.0 5.0 0.00 0.00 0.00 28 1008.3
20260508010702 55 9 0.0 5.0 0.00 0.00 0.00 27 1008.4
20260508010203 55 358 1.0 5.0 0.00 0.00 0.00 26 1008.3
20260508005703 55 304 0.0 2.0 0.00 0.00 0.00 26 1008.3
20260508004702 56 303 0.0 2.0 0.00 0.00 0.00 25 1008.3
20260508004202 56 303 0.0 2.0 0.00 0.00 0.00 25 1008.3
20260508003703 56 303 0.0 3.0 0.00 0.00 0.00 25 1008.3
20260508003202 56 303 0.0 3.0 0.00 0.00 0.00 25 1008.3
20260508002702 56 276 0.0 6.0 0.00 0.00 0.00 25 1008.3
20260508002203 57 244 0.0 6.0 0.00 0.00 0.00 24 1008.3
20260508001702 57 257 0.0 6.0 0.00 0.00 0.00 23 1008.4
20260508000702 57 28 1.0 5.0 0.00 0.00 0.00 23 1008.4
20260508000204 57 324 0.0 5.0 0.00 0.00 0.00 22 1008.4
20260507235203 58 12 0.0 5.0 0.00 0.00 0.00 23 1008.5
20260507234203 58 23 1.0 8.0 0.00 0.00 0.00 21 1008.5
20260507233702 58 353 1.0 8.0 0.00 0.00 0.00 22 1008.6
20260507233202 58 266 2.0 6.0 0.00 0.00 0.00 23 1008.6
20260507232203 58 27 5.0 10.0 0.00 0.00 0.00 20 1008.8
20260507231703 58 11 1.0 18.0 0.00 0.00 0.00 20 1008.8
20260507231202 58 16 1.0 18.0 0.00 0.00 0.00 21 1008.8
20260507230202 58 354 0.0 5.0 0.00 0.00 0.00 23 1009.0
20260507225702 58 303 1.0 8.0 0.00 0.00 0.00 24 1009.0
20260507225203 58 39 1.0 8.0 0.00 0.00 0.00 22 1008.9
20260507224703 58 226 3.0 10.0 0.00 0.00 0.00 21 1009.0
20260507224203 58 13 1.0 10.0 0.00 0.00 0.00 20 1009.0
20260507223703 58 22 3.0 10.0 0.00 0.00 0.00 20 1009.0
20260507223204 58 323 2.0 10.0 0.00 0.00 0.00 22 1009.0
20260507222702 58 299 1.0 6.0 0.00 0.00 0.00 22 1009.0
20260507221702 58 30 3.0 12.0 0.00 0.00 0.00 19 1009.1
20260507221203 58 318 1.0 10.0 0.00 0.00 0.00 19 1009.0
20260507220703 58 25 3.0 10.0 0.00 0.00 0.00 22 1009.1
20260507220203 58 40 0.0 12.0 0.00 0.00 0.00 19 1009.1
20260507215703 58 304 2.0 12.0 0.00 0.00 0.00 18 1009.2
20260507214703 59 11 2.0 10.0 0.00 0.00 0.00 20 1009.3
20260507214202 59 287 1.0 8.0 0.00 0.00 0.00 20 1009.3
20260507213703 60 6 3.0 12.0 0.00 0.00 0.00 18 1009.4
20260507213203 60 288 2.0 12.0 0.00 0.00 0.00 20 1009.3
20260507212703 60 0 1.0 6.0 0.00 0.00 0.00 19 1009.2
20260507212203 60 314 1.0 12.0 0.00 0.00 0.00 21 1009.3
20260507211703 60 331 2.0 12.0 0.00 0.00 0.00 19 1009.4
20260507211203 60 315 3.0 12.0 0.00 0.00 0.00 19 1009.4
20260507210703 60 288 3.0 12.0 0.00 0.00 0.00 20 1009.6
20260507210202 60 341 3.0 9.0 0.00 0.00 0.00 21 1009.5
20260507205704 60 325 3.0 10.0 0.00 0.00 0.00 20 1009.6
20260507205203 60 294 2.0 10.0 0.00 0.00 0.00 20 1009.6
20260507204703 60 289 2.0 7.0 0.00 0.00 0.00 22 1009.6
20260507204203 60 318 1.0 9.0 0.00 0.00 0.00 21 1009.7
20260507203703 60 300 2.0 14.0 0.00 0.00 0.00 21 1009.9
20260507203203 59 238 3.0 14.0 0.00 0.00 0.00 21 1009.9
20260507202703 59 31 1.0 8.0 0.00 0.00 0.00 21 1010.0
20260507202202 59 60 1.0 8.0 0.00 0.00 0.00 20 1009.9
20260507201703 59 1 1.0 10.0 0.00 0.00 0.00 22 1010.0
20260507200704 59 40 2.0 10.0 0.00 0.00 0.00 19 1010.1
20260507200202 59 3 0.0 13.0 0.00 0.00 0.00 24 1010.1
20260507195203 58 315 2.0 7.0 0.00 0.00 0.00 24 1010.2
20260507194703 58 298 2.0 7.0 0.00 0.00 0.00 22 1010.2
20260507194203 57 260 2.0 12.0 0.00 0.00 0.00 24 1010.3
20260507193702 57 45 2.0 12.0 0.00 0.00 0.00 21 1010.3
20260507193203 57 299 3.0 9.0 0.00 0.00 0.00 23 1010.4
20260507192702 57 340 1.0 10.0 0.00 0.00 0.00 21 1010.4
20260507192202 57 340 2.0 10.0 0.00 0.00 0.00 21 1010.4
20260507191703 58 262 1.0 8.0 0.00 0.00 0.00 25 1010.4
20260507191203 58 285 3.0 9.0 0.00 0.00 0.00 23 1010.4
20260507190703 58 286 2.0 9.0 0.00 0.00 0.00 23 1010.5
20260507190203 57 333 1.0 9.0 0.00 0.00 0.00 22 1010.5
20260507185703 57 294 3.0 9.0 0.00 0.00 0.00 24 1010.5
20260507185203 57 320 2.0 6.0 0.00 0.00 0.00 24 1010.4
20260507184702 57 274 3.0 6.0 0.00 0.00 0.00 26 1010.5
20260507184203 56 202 1.0 3.0 0.00 0.00 0.00 26 1010.5
20260507183203 56 263 2.0 7.0 0.00 0.00 0.00 27 1010.6
20260507182702 55 339 2.0 9.0 0.00 0.00 0.00 25 1010.7
20260507182203 54 333 3.0 9.0 0.00 0.00 0.00 25 1010.7
20260507181702 54 15 3.0 9.0 0.00 0.00 0.00 23 1010.6
20260507181203 54 322 3.0 8.0 0.00 0.00 0.00 24 1010.7
20260507180703 54 169 1.0 5.0 0.00 0.00 0.00 25 1010.6
20260507180203 54 250 2.0 6.0 0.00 0.00 0.00 29 1010.8
20260507175703 53 15 1.0 8.0 0.00 0.00 0.00 25 1010.8
20260507174702 53 12 1.0 9.0 0.00 0.00 0.00 26 1010.9
20260507174203 53 273 0.0 3.0 0.00 0.00 0.00 28 1010.9
20260507173703 52 61 0.0 3.0 0.00 0.00 0.00 27 1010.9
20260507173203 53 5 1.0 3.0 0.00 0.00 0.00 29 1011.1
20260507172702 52 49 0.0 5.0 0.00 0.00 0.00 28 1011.1
20260507172203 52 42 1.0 6.0 0.00 0.00 0.00 29 1011.1
20260507171703 52 50 2.0 6.0 0.00 0.00 0.00 29 1011.1
20260507171202 52 107 0.0 5.0 0.00 0.00 0.00 30 1011.1
20260507170703 52 55 0.0 6.0 0.00 0.00 0.00 29 1011.2
20260507170203 52 291 0.0 8.0 0.00 0.00 0.00 32 1011.2
20260507164703 51 278 1.0 12.0 0.00 0.00 0.00 29 1011.5
20260507164203 51 3 2.0 12.0 0.00 0.00 0.00 31 1011.5
20260507163203 51 5 0.0 3.0 0.00 0.00 0.00 33 1011.5
20260507162203 50 63 0.0 6.0 0.00 0.00 0.00 33 1011.5
20260507161702 50 196 1.0 10.0 0.00 0.00 0.00 32 1011.6
20260507161203 50 15 1.0 10.0 0.00 0.00 0.00 31 1011.7
20260507160703 49 28 3.0 10.0 0.00 0.00 0.00 32 1011.7
20260507160203 49 261 1.0 6.0 0.00 0.00 0.00 34 1011.6
20260507155703 49 356 1.0 7.0 0.00 0.00 0.00 31 1011.7
20260507155203 49 2 1.0 8.0 0.00 0.00 0.00 33 1011.7
20260507154703 49 342 0.0 8.0 0.00 0.00 0.00 34 1011.6
20260507154203 49 25 1.0 10.0 0.00 0.00 0.00 34 1011.6
20260507153703 48 357 0.0 10.0 0.00 0.00 0.00 33 1011.7
20260507153203 48 350 2.0 10.0 0.00 0.00 0.00 33 1011.6
20260507152704 48 21 0.0 6.0 0.00 0.00 0.00 34 1011.6
20260507152203 48 46 0.0 6.0 0.00 0.00 0.00 36 1011.6
20260507151703 47 57 1.0 6.0 0.00 0.00 0.00 35 1011.6
20260507151203 47 352 1.0 5.0 0.00 0.00 0.00 35 1011.8
20260507150703 47 313 0.0 3.0 0.00 0.00 0.00 36 1011.7
20260507145703 47 31 0.0 3.0 0.00 0.00 0.00 37 1011.7
20260507144702 47 246 1.0 3.0 0.00 0.00 0.00 41 1011.8
20260507144203 46 334 0.0 3.0 0.00 0.00 0.00 41 1011.9
20260507143704 46 334 0.0 3.0 0.00 0.00 0.00 41 1011.8
20260507143203 46 25 0.0 1.0 0.00 0.00 0.00 44 1011.8
20260507142703 45 29 0.0 3.0 0.00 0.00 0.00 44 1011.8
20260507142203 45 25 1.0 3.0 0.00 0.00 0.00 45 1011.9
20260507141702 45 283 0.0 1.0 0.00 0.00 0.00 46 1011.9
20260507141203 45 268 0.0 1.0 0.00 0.00 0.00 44 1011.9
20260507140703 44 304 0.0 5.0 0.00 0.00 0.00 48 1011.8
20260507140203 44 0 0.0 5.0 0.00 0.00 0.00 46 1011.9
20260507135703 44 0 0.0 2.0 0.00 0.00 0.00 45 1011.9
20260507135203 44 1 0.0 2.0 0.00 0.00 0.00 47 1011.9
20260507134704 44 57 0.0 3.0 0.00 0.00 0.00 51 1012.0
20260507134203 43 57 0.0 3.0 0.00 0.00 0.00 51 1012.0
20260507133203 43 8 0.0 1.0 0.00 0.00 0.00 55 1011.9
20260507132703 42 8 0.0 0.0 0.00 0.00 0.00 55 1012.0
20260507131703 41 37 1.0 5.0 0.00 0.00 0.00 58 1012.0
20260507131203 41 355 0.0 0.0 0.00 0.00 0.00 60 1012.1